Location: *
(51.0333°S, 178.4667°E)
Time: 13:40:48
(UTC+00:00)

STARLINK-21 - Pass Details

Date: 15 November 2019
Orbit: 529 x 530 km, 53.0° (Epoch: 11 December)

Event Time Altitude Azimuth Distance (km) Brightness Sun altitude
Rises 11:31:45 0° 251° (WSW) 2,691 7.5 -20.4°
Reaches altitude 10° 11:33:59 10° 253° (WSW) 1,798 6.5 -20.4°
Maximum altitude 11:38:02 64° 334° (NNW) 597 3.5 -20.4°
Enters shadow 11:38:06 64° 341° (NNW) 598 3.5 -20.4°
